• In Belarus
  • List of Countries
  • For 7 days
  • Water Temperature
  • Satellite Maps
  • Weather Map
  • Weather Widgets
  • user-avatar
    Login

    Hourly Weather Dymcevo

    Today, 22 June, Friday

    Time Temperature Precipitation Wind Pressure Humidity
    00:00 +14°C° 0 mm 2 mps 740 mmHg 94%
    01:00 +14°C° 0 mm 2 mps 739 mmHg 95%
    02:00 +13°C° 0 mm 3 mps 739 mmHg 95%
    03:00 +14°C° 0 mm 3 mps 739 mmHg 90%
    04:00 +16°C° 0 mm 3 mps 739 mmHg 86%
    05:00 +18°C° 0 mm 4 mps 739 mmHg 81%
    06:00 +20°C° 0 mm 4 mps 738 mmHg 74%
    07:00 +22°C° 0 mm 5 mps 738 mmHg 66%
    08:00 +24°C° 0 mm 6 mps 738 mmHg 58%
    09:00 +26°C° 0.1 mm 6 mps 738 mmHg 57%
    10:00 +27°C° 0.1 mm 6 mps 737 mmHg 55%
    11:00 +28°C° 0.1 mm 6 mps 737 mmHg 54%
    12:00 +27°C° 0.6 mm 6 mps 737 mmHg 60%
    13:00 +27°C° 0.6 mm 6 mps 737 mmHg 67%
    14:00 +26°C° 0 mm 5 mps 737 mmHg 69%
    15:00 +25°C° 1.2 mm 4 mps 737 mmHg 76%
    16:00 +22°C° 1.2 mm 4 mps 737 mmHg 84%
    17:00 +21°C° 1.2 mm 4 mps 737 mmHg 92%
    18:00 +20°C° 0.4 mm 3 mps 737 mmHg 93%
    19:00 +19°C° 0.4 mm 3 mps 738 mmHg 94%
    20:00 +17°C° 0.4 mm 2 mps 738 mmHg 95%
    21:00 +16°C° 0 mm 2 mps 738 mmHg 95%
    22:00 +15°C° 0 mm 2 mps 739 mmHg 96%
    23:00 +14°C° 0 mm 2 mps 739 mmHg 96%

    Tomorrow, 23 June, Saturday

    Time Temperature Precipitation Wind Pressure Humidity
    00:00 +13°C° 0 mm 2 mps 740 mmHg 96%
    01:00 +12°C° 0 mm 2 mps 740 mmHg 95%
    02:00 +10°C° 0 mm 2 mps 741 mmHg 95%
    03:00 +12°C° 0 mm 2 mps 741 mmHg 93%
    04:00 +12°C° 0 mm 2 mps 742 mmHg 90%
    05:00 +13°C° 0 mm 2 mps 742 mmHg 88%
    06:00 +14°C° 0 mm 2 mps 742 mmHg 77%
    07:00 +16°C° 0 mm 1 mps 742 mmHg 66%
    08:00 +19°C° 0 mm 1 mps 743 mmHg 56%
    09:00 +20°C° 0 mm 1 mps 743 mmHg 52%
    10:00 +21°C° 0 mm 1 mps 743 mmHg 48%
    11:00 +22°C° 0 mm 1 mps 743 mmHg 45%
    12:00 +20°C° 0.3 mm 1 mps 742 mmHg 56%
    13:00 +17°C° 0.3 mm 2 mps 742 mmHg 66%
    14:00 +15°C° 0.3 mm 2 mps 742 mmHg 77%
    15:00 +15°C° 0 mm 2 mps 742 mmHg 77%
    16:00 +15°C° 0 mm 2 mps 741 mmHg 77%
    17:00 +15°C° 0 mm 2 mps 741 mmHg 78%
    18:00 +14°C° 0.3 mm 3 mps 741 mmHg 83%
    19:00 +13°C° 0.3 mm 3 mps 741 mmHg 88%
    20:00 +12°C° 0.3 mm 3 mps 740 mmHg 93%
    21:00 +12°C° 0.6 mm 3 mps 740 mmHg 94%
    22:00 +11°C° 0.6 mm 3 mps 740 mmHg 95%
    23:00 +11°C° 0.6 mm 3 mps 740 mmHg 96%

    Day after tomorrow, 24 June, Sunday

    Time Temperature Precipitation Wind Pressure Humidity
    00:00 +11°C° 0.2 mm 3 mps 739 mmHg 96%
    01:00 +12°C° 0.2 mm 3 mps 739 mmHg 97%
    02:00 +13°C° 0.2 mm 2 mps 738 mmHg 97%
    03:00 +13°C° 0.4 mm 3 mps 738 mmHg 97%
    04:00 +14°C° 0.4 mm 3 mps 737 mmHg 97%
    05:00 +17°C° 0.4 mm 4 mps 736 mmHg 97%
    06:00 +19°C° 0.1 mm 5 mps 736 mmHg 91%
    07:00 +21°C° 0.1 mm 5 mps 736 mmHg 84%
    08:00 +23°C° 0.1 mm 6 mps 736 mmHg 78%
    09:00 +23°C° 0.5 mm 6 mps 736 mmHg 80%
    10:00 +23°C° 0.5 mm 6 mps 736 mmHg 82%
    11:00 +23°C° 0.5 mm 5 mps 736 mmHg 83%
    12:00 +23°C° 0.6 mm 6 mps 737 mmHg 79%
    13:00 +23°C° 0.6 mm 6 mps 737 mmHg 74%
    14:00 +23°C° 0.6 mm 6 mps 737 mmHg 69%
    15:00 +22°C° 0.1 mm 6 mps 738 mmHg 66%
    16:00 +21°C° 0.1 mm 6 mps 738 mmHg 64%
    17:00 +20°C° 0.1 mm 5 mps 739 mmHg 61%
    18:00 +17°C° 0 mm 5 mps 739 mmHg 65%
    19:00 +15°C° 0 mm 4 mps 740 mmHg 69%
    20:00 +14°C° 0 mm 3 mps 740 mmHg 73%
    21:00 +12°C° 0 mm 3 mps 741 mmHg 77%
    22:00 +11°C° 0 mm 3 mps 741 mmHg 81%
    23:00 +10°C° 0 mm 3 mps 742 mmHg 85%

    25 June, Monday

    Time Temperature Precipitation Wind Pressure Humidity
    00:00 +9°C° 0 mm 2 mps 742 mmHg 89%
    01:00 +8°C° 0 mm 2 mps 742 mmHg 92%
    02:00 +7°C° 0 mm 2 mps 743 mmHg 96%
    03:00 +8°C° 0 mm 2 mps 743 mmHg 92%
    04:00 +9°C° 0 mm 2 mps 743 mmHg 88%
    05:00 +10°C° 0 mm 2 mps 743 mmHg 84%
    06:00 +13°C° 0 mm 2 mps 744 mmHg 76%
    07:00 +15°C° 0 mm 2 mps 744 mmHg 68%
    08:00 +17°C° 0 mm 3 mps 744 mmHg 60%
    09:00 +18°C° 0 mm 3 mps 744 mmHg 56%
    10:00 +20°C° 0 mm 3 mps 744 mmHg 51%
    11:00 +21°C° 0 mm 3 mps 744 mmHg 46%
    12:00 +21°C° 0 mm 3 mps 744 mmHg 45%
    13:00 +22°C° 0 mm 3 mps 743 mmHg 44%
    14:00 +24°C° 0 mm 3 mps 743 mmHg 42%
    15:00 +22°C° 0 mm 3 mps 743 mmHg 46%
    16:00 +22°C° 0 mm 3 mps 743 mmHg 50%
    17:00 +21°C° 0 mm 2 mps 743 mmHg 54%
    18:00 +19°C° 0.1 mm 2 mps 744 mmHg 62%
    19:00 +18°C° 0.1 mm 2 mps 744 mmHg 71%
    20:00 +16°C° 0.1 mm 2 mps 744 mmHg 79%
    21:00 +15°C° 0 mm 2 mps 744 mmHg 83%
    22:00 +14°C° 0 mm 1 mps 744 mmHg 88%
    23:00 +12°C° 0 mm 1 mps 744 mmHg 92%

    26 June, Tuesday

    Time Temperature Precipitation Wind Pressure Humidity
    00:00 +12°C° 0 mm 1 mps 744 mmHg 93%
    01:00 +12°C° 0 mm 1 mps 744 mmHg 94%
    02:00 +11°C° 0 mm 1 mps 744 mmHg 96%
    03:00 +12°C° 0 mm 1 mps 744 mmHg 93%
    04:00 +13°C° 0 mm 1 mps 744 mmHg 91%
    05:00 +13°C° 0 mm 1 mps 745 mmHg 89%
    06:00 +15°C° 0.1 mm 1 mps 745 mmHg 81%
    07:00 +18°C° 0.1 mm 1 mps 745 mmHg 74%
    08:00 +20°C° 0.1 mm 1 mps 745 mmHg 66%
    09:00 +21°C° 0.4 mm 1 mps 745 mmHg 63%
    10:00 +21°C° 0.4 mm 1 mps 744 mmHg 59%
    11:00 +22°C° 0.4 mm 1 mps 744 mmHg 56%
    12:00 +21°C° 0.8 mm 2 mps 744 mmHg 60%
    13:00 +21°C° 0.8 mm 2 mps 744 mmHg 64%
    14:00 +20°C° 0.8 mm 2 mps 744 mmHg 68%
    15:00 +21°C° 1.1 mm 1 mps 744 mmHg 70%
    16:00 +21°C° 1.1 mm 1 mps 744 mmHg 71%
    17:00 +21°C° 1.1 mm 1 mps 744 mmHg 73%
    18:00 +19°C° 0.2 mm 1 mps 744 mmHg 77%
    19:00 +16°C° 0.2 mm 0 mps 744 mmHg 82%
    20:00 +14°C° 0.2 mm 0 mps 744 mmHg 86%
    21:00 +13°C° 0 mm 0 mps 744 mmHg 88%
    22:00 +12°C° 0 mm 0 mps 744 mmHg 90%
    23:00 +11°C° 0 mm 0 mps 744 mmHg 92%

    27 June, Wednesday

    Time Temperature Precipitation Wind Pressure Humidity
    00:00 +11°C° 0 mm 0 mps 744 mmHg 93%
    01:00 +11°C° 0 mm 0 mps 744 mmHg 93%
    02:00 +10°C° 0 mm 0 mps 744 mmHg 94%
    03:00 +11°C° 0 mm 0 mps 744 mmHg 92%
    04:00 +12°C° 0 mm 0 mps 744 mmHg 91%
    05:00 +13°C° 0 mm 0 mps 744 mmHg 89%
    06:00 +15°C° 0 mm 0 mps 745 mmHg 82%
    07:00 +17°C° 0 mm 0 mps 745 mmHg 74%
    08:00 +19°C° 0 mm 0 mps 745 mmHg 66%
    09:00 +20°C° 0.1 mm 0 mps 745 mmHg 60%
    10:00 +24°C° 0.1 mm 1 mps 745 mmHg 54%
    11:00 +25°C° 0.1 mm 1 mps 744 mmHg 48%
    12:00 +25°C° 0.2 mm 1 mps 744 mmHg 51%
    13:00 +24°C° 0.2 mm 2 mps 744 mmHg 54%
    14:00 +24°C° 0.2 mm 2 mps 744 mmHg 57%
    15:00 +23°C° 0.3 mm 2 mps 744 mmHg 59%
    16:00 +23°C° 0.3 mm 2 mps 744 mmHg 61%
    17:00 +23°C° 0.3 mm 1 mps 744 mmHg 63%
    18:00 +21°C° 0.1 mm 2 mps 744 mmHg 68%
    19:00 +19°C° 0.1 mm 2 mps 744 mmHg 74%
    20:00 +17°C° 0.1 mm 2 mps 745 mmHg 80%
    21:00 +16°C° 0.1 mm 2 mps 745 mmHg 83%
    22:00 +15°C° 0.1 mm 2 mps 745 mmHg 87%
    23:00 +14°C° 0.1 mm 2 mps 745 mmHg 91%
    Show more